[[{"header":{"parameterUnit":"m.s-1","parameterCategory":1,"la1":30.2991,"la2":30.254,"lo1":-89.0895,"lo2":-89.0444,"dy":0.0017,"dx":0.0017,"nx":28,"ny":28,"refTime":"2025-07-13T09:00:00:Z","depth":0,"parameterNumber":2,"parameterNumberName":"U-component_of_WINDS"},"data":[0,0,0,0,0,0,0,0,0,0,0,0,0,0,0,0,0,0,0,0,0,0,0,0,0,0,0,0,0,0,0,0,0,0,0,0,0,0,0,0,0,0,0,0,0,0,0,0,0,0,0,0,0,0,0,0,0,0,2.9454,2.9454,0,2.9505,2.9505,2.9506,2.9469,2.9468,2.9466,2.9465,2.9515,2.9518,2.952,0,0,0,0,0,0,0,0,0,0,0,0,0,2.9321,2.9323,2.9453,2.9454,2.9455,2.9505,2.9505,2.9506,2.947,2.9468,2.9466,2.9464,2.9514,2.9517,2.9521,0,0,0,0,0,0,0,0,0,0,0,0,0,2.9376,2.9324,2.9453,2.9443,2.9442,2.9504,2.9505,2.9506,2.947,2.9468,2.9465,2.9463,2.9513,2.9517,2.9521,2.9596,0,0,2.9534,2.9536,0,0,0,0,0,0,0,0,2.9373,2.9381,2.9444,2.9444,2.9443,2.9478,2.9477,2.9536,2.9471,2.9459,2.9464,2.9462,2.9504,2.9509,2.9524,2.9598,2.9601,2.9535,2.9537,2.9539,2.954,0,0,0,0,0,0,0,2.9369,2.9378,2.9474,2.9445,2.9444,2.9434,2.9439,2.9488,2.9495,2.946,2.9458,2.9464,2.9504,2.952,2.9525,2.9601,2.9534,2.9538,2.9541,2.9543,2.9736,2.9739,0,0,0,0,0,0,2.9366,2.9375,2.9472,2.9475,2.9401,2.9438,2.9444,2.9469,2.9494,2.9496,2.9466,2.9462,2.9514,2.952,2.9527,2.9613,2.9539,2.9543,2.9545,2.9734,2.9737,2.974,0,0,0,0,0,0,2.9364,2.9375,2.947,2.9425,2.9436,2.9443,2.9472,2.9472,2.9488,2.9499,2.95,2.9482,2.9512,2.9521,2.9578,2.9615,2.9545,2.9549,2.9731,2.9735,2.9738,2.9789,0,0,0,0,0,0,2.936,2.9375,2.9404,2.9426,2.9438,2.9522,2.9474,2.9474,2.9496,2.9491,2.9514,2.9515,2.9511,2.9572,2.9583,2.9619,2.9552,2.9727,2.9732,2.9737,2.9784,2.9794,2.9803,0,0,0,0,0,2.9356,2.9417,2.9406,2.9418,2.9476,2.9524,2.9532,2.9526,2.9499,2.9527,2.9534,2.9514,2.961,2.9579,2.959,2.9628,2.9725,2.9731,2.9737,2.978,2.9792,2.9802,0,0,0,0,0,0,2.9399,2.9419,2.9408,2.9478,2.95,2.9518,2.9554,2.954,2.957,2.9564,2.9555,2.9561,2.9621,2.9631,2.9596,2.97,2.9663,2.9671,2.9692,2.9703,2.9713,2.9708,2.9556,0,0,0,0,0,2.9417,2.9456,2.9471,2.9532,2.9543,2.9547,2.9568,2.9562,2.9584,2.9593,2.9604,2.9625,2.9659,2.9682,2.9715,2.9786,2.9789,2.9818,2.9827,2.9835,2.9841,2.9876,2.9888,2.9759,2.9759,2.9758,0,0,2.9454,2.947,2.9495,2.9541,2.9557,2.9596,2.9555,2.9599,2.9626,2.9599,2.9654,2.9663,2.9686,2.975,2.9779,2.976,2.9878,2.9842,2.9848,2.985,2.9884,2.9896,2.9907,2.9763,2.9762,2.9761,0,0,2.9541,2.9559,2.9609,2.9626,2.9651,2.9653,2.9665,2.9686,2.969,2.9745,2.9725,2.9758,2.9818,2.9834,2.985,2.9942,2.9923,2.9953,3.0,3.0035,3.0045,3.0054,3.0084,3.0095,2.996,2.996,2.996,0,2.9584,2.9642,2.9637,2.9681,2.97,2.9678,2.9728,2.9744,2.9779,2.9792,2.9771,2.9844,2.9858,2.9924,2.9946,2.9961,2.9973,2.9949,3.0044,3.0053,3.0061,3.0089,3.0101,2.9963,2.9963,2.9962,2.9962,0,2.9692,2.9733,2.9771,2.9804,2.9828,2.9875,2.9875,2.99,2.9891,2.9895,2.9949,2.9966,3.0,3.0015,3.0008,3.008,3.0067,3.0046,3.0007,3.0077,3.0103,3.0114,2.9968,2.9966,2.9965,2.9965,0,0,2.9807,2.9836,2.985,2.9863,2.9888,2.9919,2.9964,2.9998,3.0018,3.0042,3.0078,3.0129,3.0108,3.0127,3.0121,3.0151,3.0219,3.0126,3.0126,3.014,3.0295,3.0309,3.0322,3.0208,3.021,3.0212,3.0292,0,2.9893,2.9972,2.9967,3.0041,3.0077,3.0055,3.0094,3.0113,3.0117,3.0148,3.0152,3.0187,3.0159,3.017,3.0199,3.0204,3.0249,3.0199,3.0239,3.024,3.0231,3.0336,3.0352,3.0427,3.0303,3.0304,3.0306,0,3.0004,3.0031,3.0108,3.0125,3.014,3.0175,3.0204,3.0234,3.0254,3.0255,3.0275,3.0264,3.0307,3.0269,3.0328,3.0293,3.0309,3.0314,3.0317,3.0318,3.0275,3.0337,3.0451,3.0461,3.0322,3.0321,3.032,0,3.0076,3.0132,3.0185,3.0197,3.022,3.0245,3.0255,3.0273,3.0293,3.0318,3.033,3.036,3.0376,3.0399,3.0395,3.0369,3.0454,3.0416,3.0453,3.0453,3.047,3.0469,3.0585,3.0486,3.0486,3.0485,3.0485,0,3.0171,3.0218,3.0217,3.0249,3.03,3.0295,3.0345,3.0353,3.0369,3.04,3.0385,3.0414,3.0409,3.0438,3.0436,3.0483,3.0491,3.0491,3.0489,3.0491,3.0491,3.05,3.0493,3.0488,3.0488,3.0487,3.0487,0,3.0259,3.0261,3.0316,3.0333,3.0338,3.0375,3.0389,3.0418,3.0421,3.0461,3.047,3.0475,3.0508,3.0507,3.0546,3.0544,3.0601,3.0595,3.0594,3.0592,3.0628,3.0623,3.0752,3.0767,3.066,3.0661,3.0662,0,3.0318,3.0354,3.0374,3.0394,3.0406,3.0439,3.0459,3.0454,3.0475,3.0499,3.0525,3.0558,3.0583,3.0637,3.0643,3.0672,3.0664,3.0707,3.0668,3.0668,3.0661,3.0658,3.066,3.0714,3.0715,3.0716,3.0717,0,3.0421,3.042,3.045,3.0479,3.0502,3.0525,3.0546,3.0563,3.0561,3.0585,3.0619,3.0638,3.0677,3.0708,3.0736,3.0745,3.073,3.073,3.0739,3.074,3.0737,3.0736,3.0612,3.0726,3.0725,3.0724,3.0724,3.0724,3.0495,3.0524,3.0543,3.0575,3.059,3.061,3.0637,3.0643,3.0672,3.0703,3.0698,3.0736,3.0753,3.0788,3.08,3.0828,3.0812,3.0827,3.083,3.0833,3.0836,3.0734,3.0833,3.0833,3.0833,3.0833,3.0832,0,3.0595,3.0605,3.0635,3.0664,3.0689,3.0674,3.0696,3.0717,3.075,3.0768,3.0793,3.0831,3.0861,3.0869,3.0897,3.0918,3.0911,3.0925,3.0922,3.0924,3.085,3.0837,3.093,3.093,3.093,3.093,3.093,3.093,3.0649,3.0697,3.0698,3.0753,3.0762,3.0799,3.0812,3.0829,3.0843,3.0886,3.0911,3.0916,3.0929,3.0958,3.0984,3.0985,3.0995,3.1011,3.101,3.0939,3.093,3.092,3.0908,3.1014,3.1014,3.1081,3.1082,3.1082]},{"header":{"parameterUnit":"m.s-1","parameterCategory":1,"la1":30.2991,"la2":30.254,"lo1":-89.0895,"lo2":-89.0444,"dy":0.0017,"dx":0.0017,"nx":28,"ny":28,"refTime":"2025-07-13T09:00:00:Z","depth":0,"parameterNumber":3,"parameterNumberName":"V-component_of_WINDS"},"data":[0,0,0,0,0,0,0,0,0,0,0,0,0,0,0,0,0,0,0,0,0,0,0,0,0,0,0,0,0,0,0,0,0,0,0,0,0,0,0,0,0,0,0,0,0,0,0,0,0,0,0,0,0,0,0,0,0,0,3.7919,3.7919,0,3.7899,3.7899,3.7899,3.7825,3.7823,3.7821,3.782,3.78,3.7801,3.7802,0,0,0,0,0,0,0,0,0,0,0,0,0,3.7894,3.7895,3.7919,3.7919,3.7919,3.7899,3.7899,3.7898,3.7825,3.7823,3.7821,3.7819,3.7799,3.7801,3.7802,0,0,0,0,0,0,0,0,0,0,0,0,0,3.7893,3.7895,3.7919,3.788,3.7876,3.7899,3.7899,3.7898,3.7825,3.7823,3.782,3.7818,3.7799,3.78,3.7802,3.7862,0,0,3.7807,3.7807,0,0,0,0,0,0,0,0,3.7893,3.7894,3.7886,3.7882,3.7878,3.7862,3.7882,3.7886,3.7826,3.7845,3.782,3.7817,3.7822,3.7822,3.7824,3.7861,3.786,3.7807,3.7808,3.7808,3.7809,0,0,0,0,0,0,0,3.7893,3.7894,3.7911,3.7886,3.7881,3.7863,3.786,3.7883,3.7848,3.7843,3.7837,3.7836,3.782,3.7822,3.7823,3.786,3.7807,3.7808,3.7809,3.781,3.7944,3.7946,0,0,0,0,0,0,3.7899,3.7895,3.7912,3.7911,3.7879,3.7865,3.7862,3.787,3.7847,3.7842,3.7838,3.7833,3.7821,3.7821,3.7822,3.7889,3.7808,3.781,3.7811,3.7941,3.7944,3.7947,0,0,0,0,0,0,3.7898,3.7901,3.7913,3.7901,3.7901,3.7868,3.7878,3.7871,3.7873,3.7844,3.7837,3.7847,3.7819,3.7819,3.7852,3.7887,3.7811,3.7812,3.7938,3.7942,3.7946,3.8025,0,0,0,0,0,0,3.7898,3.7901,3.7924,3.7902,3.7902,3.7944,3.788,3.7872,3.7876,3.7868,3.7851,3.7845,3.7817,3.785,3.7854,3.7888,3.7813,3.7935,3.794,3.7945,3.8019,3.8031,3.8041,0,0,0,0,0,3.7897,3.7947,3.7925,3.7928,3.793,3.7946,3.7946,3.7912,3.7879,3.7901,3.7882,3.7846,3.7883,3.7854,3.7857,3.7893,3.7932,3.7938,3.7944,3.8014,3.8029,3.8041,0,0,0,0,0,0,3.7975,3.7944,3.7919,3.7964,3.7958,3.7933,3.796,3.7929,3.7933,3.7926,3.7884,3.7881,3.7919,3.7909,3.7878,3.7949,3.7902,3.7908,3.7953,3.7967,3.7978,3.7979,3.7815,0,0,0,0,0,3.7997,3.8013,3.7985,3.8027,3.8025,3.7994,3.7999,3.7974,3.7966,3.7964,3.7947,3.7941,3.7951,3.7959,3.7967,3.8018,3.8012,3.8044,3.8055,3.8064,3.807,3.8094,3.8107,3.7967,3.7967,3.7966,0,0,3.8043,3.8028,3.8041,3.8042,3.8035,3.8051,3.7992,3.8013,3.8024,3.7967,3.7996,3.7984,3.7975,3.8016,3.8033,3.8009,3.8108,3.8072,3.8079,3.808,3.8102,3.8115,3.8127,3.7971,3.797,3.7969,0,0,3.8135,3.8126,3.8159,3.8153,3.8142,3.812,3.8128,3.8108,3.8098,3.8126,3.8083,3.8097,3.8116,3.811,3.811,3.8199,3.8165,3.8203,3.8261,3.8285,3.8296,3.8306,3.8336,3.8347,3.8209,3.821,3.821,0,3.8193,3.8217,3.818,3.8203,3.8204,3.8153,3.8185,3.8181,3.8174,3.8176,3.8148,3.817,3.816,3.8199,3.822,3.8223,3.823,3.8204,3.8298,3.8307,3.8315,3.8343,3.8355,3.8214,3.8214,3.8213,3.8213,0,3.8288,3.8305,3.8333,3.8326,3.8331,3.8359,3.8326,3.8336,3.831,3.8291,3.832,3.8307,3.831,3.8318,3.8293,3.8353,3.8337,3.8305,3.8256,3.8334,3.8359,3.837,3.8221,3.8219,3.8218,3.8216,0,0,3.8428,3.84,3.841,3.8406,3.839,3.8402,3.8428,3.843,3.8438,3.8435,3.8454,3.8471,3.844,3.844,3.8415,3.8436,3.8506,3.84,3.84,3.8419,3.8568,3.8592,3.8605,3.8484,3.8486,3.8487,3.8568,0,3.8514,3.8554,3.8522,3.8569,3.8583,3.8534,3.8555,3.8548,3.8531,3.8541,3.8522,3.8534,3.8494,3.8493,3.8512,3.8493,3.8535,3.8487,3.85,3.8501,3.8502,3.8619,3.8644,3.8721,3.8578,3.858,3.8581,0,3.8619,3.8619,3.8667,3.8647,3.8651,3.8672,3.8671,3.8681,3.8671,3.8657,3.8657,3.8625,3.8648,3.8602,3.8632,3.86,3.8604,3.8596,3.8598,3.8596,3.8545,3.8619,3.8745,3.8756,3.8597,3.8596,3.8595,0,3.8714,3.8726,3.8756,3.8754,3.8731,3.8746,3.8738,3.8725,3.8729,3.8728,3.873,3.8733,3.8734,3.8737,3.8706,3.8676,3.874,3.8692,3.8728,3.8729,3.8743,3.8742,3.887,3.8749,3.8748,3.8748,3.8748,0,3.8812,3.8842,3.8798,3.8816,3.8849,3.8811,3.8844,3.8831,3.882,3.8834,3.8793,3.8807,3.8767,3.8778,3.8754,3.8782,3.8783,3.8772,3.8765,3.8775,3.8776,3.8775,3.8769,3.8751,3.8751,3.875,3.8749,0,3.8922,3.8894,3.8922,3.8898,3.8893,3.8918,3.8897,3.8913,3.8893,3.8912,3.8914,3.8883,3.8893,3.8864,3.8869,3.8853,3.8893,3.8878,3.8896,3.8891,3.8929,3.8925,3.9059,3.9074,3.8945,3.8946,3.8947,0,3.8986,3.9008,3.8986,3.8992,3.8985,3.8996,3.8999,3.8963,3.8968,3.8958,3.8975,3.8981,3.8983,3.9001,3.898,3.8983,3.8967,3.9014,3.8967,3.8976,3.8966,3.8964,3.8965,3.9023,3.9025,3.9026,3.9027,0,3.9101,3.9085,3.9091,3.9091,3.9096,3.9094,3.909,3.9098,3.9059,3.9067,3.9076,3.9078,3.9083,3.9089,3.9088,3.9079,3.9046,3.9042,3.905,3.9059,3.9068,3.9062,3.892,3.9039,3.9038,3.9037,3.9036,3.9036,3.9188,3.9205,3.9191,3.9199,3.9192,3.9189,3.9202,3.9183,3.919,3.9191,3.9169,3.9182,3.9171,3.9166,3.916,3.917,3.9148,3.9161,3.9164,3.9167,3.9172,3.9068,3.917,3.9169,3.9169,3.9169,3.9169,0,3.9299,3.9288,3.9295,3.929,3.9296,3.9265,3.9259,3.9265,3.9277,3.9269,3.9273,3.9282,3.9288,3.9267,3.9269,3.9281,3.9266,3.9283,3.9281,3.9279,3.9193,3.9184,3.9295,3.9295,3.9295,3.9295,3.9295,3.9295,3.9358,3.9384,3.9367,3.9389,3.9377,3.9389,3.9388,3.9385,3.9378,3.9391,3.9395,3.9381,3.9368,3.9369,3.9372,3.9366,3.9368,3.939,3.9378,3.9298,3.9285,3.9273,3.9265,3.9391,3.9391,3.9463,3.9464,3.9464]}]]